SL-14 DEB, 45655

Orbit data source: Space-Track

SL-14 DEB, 45655 is space debris in LEO originally from a launch on Thu, 15 Aug 1991 UTC launched from the Plesetsk Missile And Space Complex (PKMTR). Debris objects in space refer to the collection of defunct objects orbiting the Earth. Examples of debris include non-operational satellites, rocket bodies, and fragments generated from explosions, collisions, or faulty payload assembly.

Loading next visibility...
Identifier
45655, 1991-056CZ
Orbit
LEO
Country
Flag of CISCIS
Related business
Manufacturer
Unknown
Mission
Spacecraft
Bus & Motor
Unknown
Mass
Unknown
Launch date (UTC)
1991-08-15 (34 years ago)
Launch vehicle
Unknown
Launch site
Plesetsk Missile And Space Complex (PKMTR)
Object type
Payload
Rocket body
Debris
Shape & HBR
Unknown shape, 0.1 m
Radar Cross Section
Small (<0.1 m²)

Expand to show TLE details & history
Last TLE update: 10 hours ago

TLE from 10 hours ago
0 SL-14 DEB
1 45655U 91056CZ  26038.06475434  .00000350  00000-0  10962-2 0  9996
2 45655  82.5377 277.4696 0107753  29.7404 330.9775 12.99770526283936
Epoch: 2026-02-07T01:33Z
TLE epoch observation values (Epoch: 2026-02-07T01:33:14.774Z)
Latitude
-0.00005°
Longitude
116.9644°
Altitude
1,193.974 km
Speed
7.291 km/s
True Right ascension
18h 29m 52s
True Declination
0° 00' 00"
Sunlit
Object was in daylight at epoch
Visualization orbit readout
Latitude
Unknown
Longitude
Unknown
Altitude
Unknown
Speed
Unknown
Apparent Right ascension
Unknown
Apparent Declination
Unknown
Sunlit
N/A
Visualization observer readout
Local Sidereal Time
13:52:31
Azimuth
Unknown
Elevation
Unknown
Doppler factor
Unknown
Orbital elements
Apogee altitude
1,342.564 km
Perigee altitude
1,177.952 km
Semi-major axis
7,638.395 km
Eccentricity
0.01078
Inclination
82.5377°
RAAN
277.4696°
Arg. of periapsis
29.7404°
True anomaly
330.37133°
Mean anomaly
330.9775°
Eccentric anomaly
330.67513°
Mean motion
3.25117 °/min
Orbital period
110.73 mins
BSTAR
0.0010962
Loading maneuver chart data...
Computing Atmospheric mass density...
Loading historical data...
Loading historical data...
Loading historical data...
Loading historical data...
Loading historical data...
Loading historical data...
Loading historical data...

Documentation

Showing up to 5 results
|